Tracking 27086 objects as of 22-Mar-2023
HD Live streaming from Space Station
objects crossing your sky now

GALAXY 26 (TELSTAR 6)

Track GALAXY 26 (TELSTAR 6) now!
GALAXY 26 (TELSTAR 6) is classified as:


NORAD ID: 25626
Int'l Code: 1999-005A
Perigee: 36,139.7 km
Apogee: 36,169.0 km
Inclination: 9.1 °
Period: 1,454.6 minutes
Semi major axis: 42525 km
RCS: 36.2015 m2 (large)
Launch date: February 15, 1999
Source: United States (US)
Launch site: TYURATAM MISSILE AND SPACE COMPLEX (TTMTR)

24 C-band, 28 Ku-band; U.S., southern Canada, Mexico, Caribbean.
Your satellite tracking list
Your tracking list is empty




NASA's NSSDC Master Catalog

Two Line Element Set (TLE):
1 25626U 99005A   23081.32372824 -.00000242  00000-0  00000+0 0  9997
2 25626   9.1043  57.4310 0003437  14.1593 183.7193  0.98999112 87869
Source of the keplerian elements: AFSPC